Regional Weather Roundup
Issued by NWS Sioux Falls, SD

Home | Current Version | Previous Version | Text Only | Print | Product List | Glossary On
Versions: 1 2 3 4 5 6 7 8 9 10 11 12 13 14 15 16 17 18 19 20 21 22 23 24 25 26 27 28 29 30 31 32 33 34 35 36 37 38 39 40 41 42 43 44 45 46 47 48 49 50
000
ASUS43 KFSD 281302
RWRFSD

WEATHER ROUNDUP FOR SE SOUTH DAKOTA/SW MINNESOTA/NW IOWA
NATIONAL WEATHER SERVICE SIOUX FALLS SD
800 AM CDT TUE JUL 28 2015

NOTE: "FAIR" INDICATES FEW OR NO CLOUDS BELOW 12,000 FEET WITH NO
SIGNIFICANT WEATHER AND OR OBSTRUCTIONS TO VISIBILITY.


SDZ038>040-050-052>070-281400-
SOUTHEAST SOUTH DAKOTA

CITY           SKY/WX    TMP DP  RH WIND       PRES   REMARKS
BROOKINGS      CLOUDY    68  63  83 S10       29.82R
CHAMBERLAIN    SUNNY     63  59  87 W18G24    29.85R
HURON          PTSUNNY   69  67  93 CALM      29.79R
MADISON        PTSUNNY   68  68 100 S14G20    29.82R
MITCHELL       CLOUDY    70  68  93 S6        29.82R
SIOUX FALLS    CLOUDY    71  66  84 S16       29.84R
WINNER         FAIR      63  55  75 NW15      29.88R
YANKTON        CLOUDY    70  66  88 MISG      29.84R
$$

MNZ071-072-080-081-089-090-097-098-281400-
SOUTHWEST MINNESOTA

CITY           SKY/WX    TMP DP  RH WIND       PRES   REMARKS
FAIRMONT       CLOUDY    68  61  77 SE20      29.76F
JACKSON        CLOUDY    68  66  94 E5        29.76F
LUVERNE        CLOUDY    68  64  88 SW13      29.86R
MARSHALL       CLOUDY    68  63  83 SW14      29.75R
MONTEVIDEO     CLOUDY    70  70 100 W6        29.72R
PIPESTONE      CLOUDY    68  66  94 SW13      29.82R
REDWOOD FALLS  CLOUDY    69  65  86 SE10      29.70F
TRACY          CLOUDY    68  64  88 S13       29.75R
WINDOM         CLOUDY    70  64  83 W3        29.78R
WORTHINGTON    CLOUDY    66  63  88 SW8       29.83R
$$

IAZ001>003-012>014-020>022-031-032-NEZ013-014-SDZ071-281400-
NORTHWEST IOWA

CITY           SKY/WX    TMP DP  RH WIND       PRES   REMARKS
DENISON        LGT RAIN  68  68 100 NE8       29.91R
ESTHERVILLE    LGT RAIN  68  67  96 E20G31    29.74F
SIOUX CITY     CLOUDY    72  66  81 SE15      29.83R
SPENCER        LGT RAIN  71  68  90 SE13      29.83R
$$

ABBREVIATIONS USED IN REMARKS
   TC - TEMPERATURE IN CELSIUS
  WCI - WIND CHILL INDEX
   HX - HEAT INDEX
  VSB - VISIBILITY



USA.gov is the U.S. government's official web portal to all federal, state and local government web resources and services.